Regional Weather Roundup
Issued by NWS

Home | Current Version | Previous Version | Text Only | Print | Product List | Glossary On
Versions: 1 2 3 4 5 6 7 8 9 10 11 12 13 14 15 16 17 18 19 20 21 22 23 24 25 26 27 28 29 30 31 32 33 34 35 36 37 38 39 40 41 42 43 44 45 46 47 48 49 50
000
ASUS44 KLIX 011011
RWRLA
LOUISIANA WEATHER ROUNDUP
NATIONAL WEATHER SERVICE NEW ORLEANS LA
500 AM CDT TUE SEP 01 2015

NOTE: "FAIR" INDICATES FEW OR NO CLOUDS BELOW 12,000 FEET WITH NO
      SIGNIFICANT WEATHER AND/OR OBSTRUCTIONS TO VISIBILITY.
      SKY/WX - SKY CONDITION AND SIGNIFICANT WEATHER.
      TMP - AIR TEMPERATURE.    DP   - DEWPOINT TEMPERATURE.
      RH  - RELATIVE HUMIDITY.  PRES - PRESSURE.
      HX  - HEAT INDEX.         WCI  - WIND CHILL INDEX.

*  THESE STATIONS ARE NOT NWS OR FAA STATIONS AND ARE NOT UNDER
   NWS QUALITY CONTROL.

LAZ040-048-061>063-065-066-069-011100-
SOUTHEAST LOUISIANA

CITY           SKY/WX    TMP DP  RH WIND       PRES   REMARKS
N.O. AUDUBON   NOT AVBL
N.O. INTL ARPT MOCLDY    78  70  76 CALM      30.03S
N.O. LAKEFRONT MOCLDY    78  70  76 S3        30.04S
N.O. DOWNTOWN* FAIR      81  70  69 CALM      30.04F
RESERVE*       FAIR      74  72  92 CALM      30.04S FOG
SLIDELL        PTCLDY    68  67  96 CALM      30.03S
BATON ROUGE    CLOUDY    73  71  93 NE3       30.04S
BOOTHVILLE     PTCLDY    80  73  79 CALM      30.04S
BELLE CHASSE   MOCLDY    71  69  93 CALM      30.03S FOG
BOGALUSA*      NOT AVBL
GALLIANO*      MOSUNNY   70  69  96 CALM      30.03S FOG
NEW ROADS*     FAIR      73  72  95 CALM      30.04R
GONZALES*      FAIR      72  72 100 CALM      30.02S
HAMMOND*       MOCLDY    72  68  88 CALM      30.06S FOG
HOUMA*         MOCLDY    73  72  95 NE5       30.02F FOG
PORT FOURCHON* SUNNY     81  70  69 CALM      30.03S

$$

LAZ041-044-053-054-011100-
SOUTHWEST LOUISIANA

CITY           SKY/WX    TMP DP  RH WIND       PRES   REMARKS
LAKE CHARLES   MOCLDY    74  71  91 CALM      30.01F
LAFAYETTE      CLOUDY    75  73  93 CALM      30.03R
PATTERSON      CLOUDY    75  72  88 NE5       30.03S
SALT POINT       N/A     77  75  93 CALM      30.00R
NEW IBERIA     CLOUDY    76  73  91 N8        30.02F
CHENAULT AIRPK CLOUDY    74  72  92 CALM      30.01F

$$

LAZ027-028-011100-
CENTRAL LOUISIANA

CITY           SKY/WX    TMP DP  RH WIND       PRES   REMARKS
FORT POLK      LGT RAIN  75  73  94 E2        30.01F
ALEXANDRIA INT CLOUDY    74  72  93 CALM      30.03S
ALEXANDRIA     CLOUDY    73  69  87 CALM      30.05R FOG

$$

LAZ001-002-011100-
NORTHWEST LOUISIANA

CITY           SKY/WX    TMP DP  RH WIND       PRES   REMARKS
SHREVEPORT     CLOUDY    75  68  78 CALM      30.04S
BARKSDALE AFB  CLOUDY    72  68  87 SE5       30.04S
DTN SHREVEPORT CLOUDY    76  69  79 SW3       30.04S

$$

LAZ014-016-011100-
NORTHEAST LOUISIANA

CITY           SKY/WX    TMP DP  RH WIND       PRES   REMARKS
MONROE         CLOUDY    73  70  90 CALM      30.05S
TALLULAH       PTCLDY    69  67  93 CALM      30.05S

$$



USA.gov is the U.S. government's official web portal to all federal, state and local government web resources and services.